This demonstration page uses our WeatherBlox Daily Observations layout. Learn more.

Left ArrowRight Arrow

44.8408, -93.29828

Hourly Observations for April 10, 2019

Temp ( °F °C ) Dew Point ( °F °C ) Humidity (%) Winds ( mph kmh ) Pressure ( in mb ) Visibility ( mi km ) Precip ( " mm )
12:53 am 00:53 Mostly Cloudy 32 0 18 -7.8 56 56 ENE 10 17 30.09 1019 10 16 0.00 0.00
1:53 am 01:53 Mostly Clear 32 0 18 -7.8 56 56 ENE 9 15 30.08 1019 10 16 0.00 0.00
2:53 am 02:53 Mostly Clear 31 -0.6 18 -7.8 59 59 ENE 13 20 30.07 1018 10 16 0.00 0.00
3:53 am 03:53 Mostly Cloudy 30 -1.1 19 -7.2 64 64 E 13 20 30.07 1018 10 16 0.00 0.00
4:53 am 04:53 Partly Cloudy 30 -1.1 20 -6.7 66 66 E 13 20 30.06 1018 10 16 0.00 0.00
5:53 am 05:53 Mostly Cloudy 30 -1.1 20 -6.7 66 66 E 15 24 30.06 1018 10 16 0.00 0.00
6:17 am 06:17 Mostly Cloudy 30 -1.1 21 -6.1 69 69 E 15 24 30.10 1019 10 16 0.00 0.00
6:53 am 06:53 Mostly Cloudy 30 -1.1 21 -6.1 69 69 E 13 20 30.08 1019 10 16 0.00 0.00
7:16 am 07:16 Mostly Cloudy 30 -1.1 21 -6.1 69 69 ENE 14 22 30.12 1020 10 16 0.00 0.00
7:33 am 07:33 Mostly Cloudy 31 -0.6 21 -6.1 67 67 E 14 22 30.13 1020 10 16 0.00 0.00
7:46 am 07:46 Cloudy 31 -0.6 22 -5.6 69 69 E 13 20 30.13 1020 10 16 0.00 0.00
7:53 am 07:53 Cloudy 31 -0.6 22 -5.6 69 69 E 13 20 30.10 1019 10 16 0.00 0.00
8:02 am 08:02 Cloudy 31 -0.6 22 -5.6 69 69 ENE 15 24 30.12 1020 10 16 0.00 0.00
8:12 am 08:12 Cloudy 31 -0.6 22 -5.6 69 69 ENE 13 20 30.12 1020 10 16 0.00 0.00
8:21 am 08:21 Cloudy 31 -0.6 22 -5.6 69 69 ENE 14 22 30.11 1020 10 16 0.00 0.00
8:53 am 08:53 Cloudy 32 0 22 -5.6 66 66 E 14 22 30.11 1020 10 16 0.00 0.00
9:53 am 09:53 Cloudy 33 0.6 23 -5 66 66 E 17 28 30.08 1019 10 16 0.00 0.00
10:53 am 10:53 Cloudy 33 0.6 23 -5 66 66 E 20 31 30.10 1019 10 16 0.00 0.00
11:53 am 11:53 Cloudy 34 1.1 23 -5 64 64 E 17 28 30.09 1019 10 16 0.00 0.00
12:29 pm 12:29 Cloudy with Light Snow 33 0.6 25 -3.9 72 72 E 14 22 30.08 1019 2 3 0.00 0.03
12:34 pm 12:34 Windy with Snow Likely 32 0 25 -3.9 75 75 E 20 31 30.09 1019 1 1 0.00 0.03
12:53 pm 12:53 Mostly Cloudy with Light Snow 31 -0.6 27 -2.8 85 85 ENE 14 22 30.07 1018 1 1 0.01 0.25
1:20 pm 13:20 Cloudy with Light Snow 32 0 28 -2.2 85 85 ENE 14 22 30.06 1018 1 2 0.01 0.25
1:40 pm 13:40 Cloudy with Snow 31 -0.6 28 -2.2 89 89 NE 14 22 30.05 1018 1 1 0.01 0.25
1:53 pm 13:53 Cloudy with Snow 31 -0.6 28 -2.2 89 89 ENE 13 20 30.02 1017 1 1 0.03 0.76
2:10 pm 14:10 Mostly Cloudy with Snow 31 -0.6 28 -2.2 89 89 ENE 13 20 30.04 1017 1 1 0.02 0.51
2:47 pm 14:47 Mostly Cloudy with Heavy Snow 30 -1 28 -2 93 93 ENE 14 22 30.04 1017 0 0 0.07 1.78
2:53 pm 14:53 Mostly Cloudy with Heavy Snow 31 -0.6 29 -1.7 92 92 ENE 13 20 30.03 1017 0 0 0.07 1.78
3:11 pm 15:11 Mostly Cloudy with Snow 31 -0.6 29 -1.7 92 92 ENE 14 22 30.04 1017 1 1 0.03 0.76
3:53 pm 15:53 Mostly Cloudy with Snow 31 -0.6 28 -2.2 89 89 E 16 26 30.01 1016 1 1 0.06 1.52
4:05 pm 16:05 Mostly Cloudy with Snow 32 0 29 -1.7 88 88 ENE 15 24 30.03 1017 0 0 0.01 0.25
4:22 pm 16:22 Cloudy with Snow 31 -0.6 29 -1.7 92 92 ENE 15 24 30.03 1017 1 1 0.02 0.51
4:53 pm 16:53 Mostly Cloudy with Snow 32 0 29 -1.7 88 88 ENE 14 22 30.00 1016 1 1 0.04 1.02
5:53 pm 17:53 Cloudy with Light Snow 32 0 29 -1.7 88 88 ENE 13 20 30.00 1016 1 1 0.02 0.51
5:56 pm 17:56 Cloudy with Light Snow 32 0 29 -1.7 88 88 ENE 15 24 30.03 1017 1 2 0.00 0.03
6:02 pm 18:02 Cloudy with Light Snow 32 0 29 -1.7 88 88 ENE 15 24 30.03 1017 2 2 0.01 0.25
6:38 pm 18:38 Cloudy with Light Snow 33 0.6 29 -1.7 85 85 ENE 16 26 30.02 1017 2 3 0.02 0.51
6:53 pm 18:53 Cloudy with Light Snow 33 0.6 29 -1.7 85 85 ENE 15 24 30.01 1016 5 8 0.02 0.51
7:29 pm 19:29 Cloudy with Light Snow 33 0.6 30 -1.1 89 89 ENE 18 30 30.01 1016 3 4 0.01 0.25
7:36 pm 19:36 Cloudy with Light Snow 33 0.6 30 -1.1 89 89 ENE 17 28 30.02 1017 1 2 0.01 0.25
7:41 pm 19:41 Cloudy with Light Snow 33 0.6 30 -1.1 89 89 ENE 17 28 30.03 1017 1 2 0.01 0.25
7:53 pm 19:53 Cloudy with Light Snow 33 0.6 30 -1.1 89 89 ENE 18 30 30.00 1016 1 2 0.01 0.25
8:00 pm 20:00 Windy with Snow Likely 33 0.6 30 -1.1 89 89 ENE 20 31 30.00 1016 1 2 0.00 0.03
8:05 pm 20:05 Cloudy with Light Snow 33 0.6 30 -1.1 89 89 ENE 16 26 30.00 1016 2 3 0.00 0.03
8:41 pm 20:41 Windy with Snow Likely 34 1.1 30 -1.1 85 85 ENE 20 31 30.03 1017 3 4 0.01 0.25
8:50 pm 20:50 Cloudy with Light Snow 34 1 30 -1 87 87 ENE 14 22 30.04 1017 3 4 0.01 0.25
8:53 pm 20:53 Cloudy with Light Snow 33 0.6 30 -1.1 89 89 ENE 15 24 30.02 1017 3 4 0.01 0.25
9:53 pm 21:53 Windy with Snow Likely 34 1.1 30 -1.1 85 85 E 20 31 29.99 1016 7 11 0.01 0.25
10:53 pm 22:53 Cloudy 34 1.1 29 -1.7 82 82 ENE 23 37 30.00 1016 8 13 0.00 0.03
11:53 pm 23:53 Windy with Snow Likely 33 0.6 29 -1.7 85 85 ENE 23 37 29.98 1015 5 8 0.00 0.03

Powered by AerisWeather